Regional Weather Roundup
Issued by NWS Jackson, KY

Home | Current Version | Previous Version | Graphics & Text | Print | Product List | Glossary On
Versions: 1 2 3 4 5 6 7 8 9 10 11 12 13 14 15 16 17 18 19 20 21 22 23 24 25 26 27 28
000
ASUS43 KJKL 302110
RWRJKL

EAST KENTUCKY HOURLY WEATHER ROUNDUP
NATIONAL WEATHER SERVICE JACKSON KY
500 PM EDT MON MAY 30 2016

NOTE: "FAIR" INDICATES FEW OR NO CLOUDS BELOW 12,000 FEET WITH
NO SIGNIFICANT WEATHER AND/OR OBSTRUCTIONS TO VISIBILITY.

* THESE REPORTS ARE NOT UNDER NWS QUALITY CONTROL AND MAY NOT
  REPORT WEATHER SUCH AS PRECIPITATION AND FOG.

KYZ079-080-083-085-087-088-110-112-115-119-120-302200
...EASTERN KENTUCKY...

CITY           SKY/WX    TMP DP  RH WIND       PRES   REMARKS
JACKSON        MOSUNNY   83  62  49 CALM      30.02F
LONDON         MOSUNNY   82  59  45 NE8       30.01F
SOMERSET*      MOSUNNY   82  55  39 NE8       30.01F
MONTICELLO*    SUNNY     85  60  42 N18       30.02F
WILLIAMSBURG*  PTCLDY    81  61  50 N8        30.00F
MIDDLESBORO*   SUNNY     83  64  52 N6        30.00S
HARLAN APT*      N/A     82  59  44 N3        30.01S
HAZARD APT*    PTCLDY    81  61  50 NE3       30.01F
BLACK MTN*       N/A    N/A N/A N/A N2          N/A
PIKE CO APT*     N/A     81  65  59 NW8       30.02S
BIG SANDY APT* CLEAR     83  64  54 N7        30.01S
MOREHEAD APT*  CLEAR     82  59  44 N8        30.03F
ASHLAND*       MOSUNNY   82  64  54 N6        29.97F
$$

KYZ035-036-041-042-044-050-067-078-099-302200
...CENTRAL KENTUCKY...

CITY           SKY/WX    TMP DP  RH WIND       PRES   REMARKS
MT STERLING*   PTSUNNY   82  63  51 NE7       30.03F
FLEMING/MASON* SUNNY    N/A N/A N/A N7        30.02F
DANVILLE*      MOSUNNY   82  59  44 N6        30.03F
RICHMOND*      PTSUNNY   82  59  44 N5        30.01F
LEXINGTON      MOSUNNY   85  59  41 N9        30.01F
FRANKFORT      SUNNY     87  54  32 N6        30.00F
LOUISVILLE     MOSUNNY   87  56  34 NE6       29.99F
LEBANON*         N/A     84  59  42 NW8       30.01F
GLASGOW*       PTSUNNY   87  55  33 CALM      30.00F
BOWLING GREEN  MOSUNNY   88  58  36 NE10      30.00F
$$

KYZ091>093-OHZ055-061-077-WVZ005-015-034-035-042-302200
...SOUTHERN OHIO/WEST VIRGINIA...

CITY           SKY/WX    TMP DP  RH WIND       PRES   REMARKS
COVINGTON      MOSUNNY   85  54  34 NW7       30.00F
COLUMBUS       MOSUNNY   84  57  39 NW8G16    29.97F
DAYTON         MOSUNNY   85  54  34 NW9       30.01F
WILMINGTON     SUNNY     84  56  38 N8        30.01F
HUNTINGTON       N/A     85  61  44 VRB3      29.99F
CHARLESTON       N/A     81  62  52 N9G17     29.98F
PINEVILLE*       N/A     84  54  35 MISG      30.05S
BECKLEY          N/A     79  57  46 NW8       30.03F
BLUEFIELD      PTSUNNY   70  59  68 E7        30.06S
LOGAN CO APT*  MOCLDY    82  61  47 N6        30.00F
$$

VAZ002-007-008-TNZ017-027-036-066-071-302200
...SOUTHWEST VIRGINIA/EAST TENNESSEE...

CITY           SKY/WX    TMP DP  RH WIND       PRES   REMARKS
WISE*            N/A     81  54  39 N10       30.08S
JONESVILLE*      N/A     81  66  61 S6        30.02S
ABINGDON*      PTSUNNY   82  58  43 NW10G20   30.01S
BRISTOL        CLOUDY    76  64  66 NW7       29.99F
SEVIERVILLE*     N/A     84  61  45 NE5       29.96S
KNOXVILLE      PTSUNNY   86  59  39 VRB3      29.96
OAK RIDGE      PTSUNNY   86  62  44 VRB5      29.98F
CROSSVILLE     SUNNY     82  55  39 NW10      30.04F
NASHVILLE      MOSUNNY   90  55  30 N7        30.00F
$$

...KEY TO REMARKS...
VSB - VISIBILITY IN MILES
WCI - WIND CHILL INDEX
HX  - HEAT INDEX

$$




USA.gov is the U.S. government's official web portal to all federal, state and local government web resources and services.